Bellefontaine, OH

2:35 AM EDT on June 28, 2017 (GMT -0400)
Bellefontaine

Weather History for KEDJ - November, 2012

Change the Weather History Date:

Saturday, November 10, 2012

  Actual Average (KDLZ) Record (KDLZ)
Temperature  
Mean Temperature 54 °F -  
Max Temperature 66 °F 53 °F 74 °F (1975)
Min Temperature 42 °F 33 °F 13 °F (1991)
Degree Days  
Heating Degree Days 11    
Growing Degree Days 4 (Base 50)    
Moisture  
Dew Point 41 °F    
Average Humidity 59    
Maximum Humidity 76    
Minimum Humidity 45    
Precipitation  
Precipitation 0.00 in - - ()
Sea Level Pressure  
Sea Level Pressure 30.12 in    
Wind  
Wind Speed 11 mph (South)    
Max Wind Speed 17 mph    
Max Gust Speed 22 mph    
Visibility 10 miles    
Events      
Averages and records for this station are not official NWS values.
T = Trace of Precipitation, MM = Missing Value Source: NWS Daily Summary

Daily Weather History Graph

Daily Weather History Graph

Search for Another Location

Airport or City:

Trip Planner

Search our weather history database for the weather conditions in past years. The results will help you decide how hot, cold, wet, or windy it might be!

Date:

Astronomy

Nov. 10, 2012 Rise Set
Actual Time 7:16 AM EST 5:22 PM EST
Civil Twilight 6:47 AM EST 5:50 PM EST
Nautical Twilight 6:14 AM EST 6:23 PM EST
Astronomical Twilight 5:42 AM EST 6:55 PM EST
Moon 3:19 AM EST (11/10) 3:08 PM EST (11/10)
Length of Visible Light 11h 03m
Length of Day
10h 05m
Waning Crescent, 14% of the Moon is Illuminated
Nov 10
Waning Crescent
Nov 13
New
Nov 20
First Quarter
Nov 28
Full
Dec 6
Last Quarter

Hourly Weather History & Observations

Time (EST) Temp. Windchill Dew Point Humidity Pressure Visibility Wind Dir Wind Speed Gust Speed Precip Events Conditions
12:10 AM 48.2 °F - 41.0 °F 76% 30.11 in 10.0 mi SSE 8.1 mph - 0.00 in   Overcast
12:30 AM 48.2 °F - 39.2 °F 71% 30.11 in 10.0 mi SSE 8.1 mph - 0.00 in   Overcast
12:50 AM 50.0 °F - 39.2 °F 66% 30.11 in 10.0 mi SSE 9.2 mph - 0.00 in   Overcast
1:10 AM 50.0 °F - 39.2 °F 66% 30.11 in 10.0 mi SSE 9.2 mph - 0.00 in   Overcast
1:30 AM 50.0 °F - 39.2 °F 66% 30.11 in 10.0 mi SSE 9.2 mph - 0.00 in   Overcast
1:50 AM 50.0 °F - 39.2 °F 66% 30.11 in 10.0 mi SSE 10.4 mph - 0.00 in   Mostly Cloudy
2:10 AM 51.8 °F - 37.4 °F 58% 30.12 in 10.0 mi SSE 10.4 mph - 0.00 in   Mostly Cloudy
2:30 AM 51.8 °F - 37.4 °F 58% 30.12 in 10.0 mi SSE 9.2 mph - 0.00 in   Overcast
3:10 AM 50.0 °F - 37.4 °F 62% 30.13 in 10.0 mi SSE 10.4 mph - 0.00 in   Mostly Cloudy
3:30 AM 50.0 °F - 37.4 °F 62% 30.13 in 10.0 mi SSE 10.4 mph - 0.00 in   Mostly Cloudy
3:50 AM 50.0 °F - 37.4 °F 62% 30.13 in 10.0 mi South 10.4 mph - 0.00 in   Mostly Cloudy
4:10 AM 48.2 °F - 37.4 °F 66% 30.12 in 10.0 mi SSE 11.5 mph - 0.00 in   Mostly Cloudy
4:30 AM 48.2 °F - 37.4 °F 66% 30.12 in 10.0 mi SSE 10.4 mph - 0.00 in   Partly Cloudy
4:50 AM 48.2 °F - 35.6 °F 62% 30.12 in 10.0 mi SSE 11.5 mph - 0.00 in   Clear
5:10 AM 46.4 °F 41.5 °F 35.6 °F 66% 30.12 in 10.0 mi South 10.4 mph - 0.00 in   Clear
5:30 AM 46.4 °F 41.5 °F 35.6 °F 66% 30.13 in 10.0 mi South 10.4 mph - 0.00 in   Clear
5:50 AM 46.4 °F 41.9 °F 35.6 °F 66% 30.12 in 10.0 mi SSE 9.2 mph - 0.00 in   Clear
6:10 AM 44.6 °F 40.2 °F 35.6 °F 71% 30.13 in 10.0 mi SSE 8.1 mph - 0.00 in   Clear
6:30 AM 42.8 °F 37.5 °F 35.6 °F 76% 30.13 in 10.0 mi SSE 9.2 mph - 0.00 in   Clear
6:50 AM 42.8 °F 37.5 °F 35.6 °F 76% 30.13 in 10.0 mi SSE 9.2 mph - 0.00 in   Clear
7:10 AM 42.8 °F 37.5 °F 35.6 °F 76% 30.14 in 10.0 mi SSE 9.2 mph - 0.00 in   Clear
7:30 AM 44.6 °F 39.7 °F 37.4 °F 76% 30.14 in 10.0 mi SSE 9.2 mph - 0.00 in   Clear
7:50 AM 44.6 °F 39.7 °F 37.4 °F 76% 30.15 in 10.0 mi SSE 9.2 mph - 0.00 in   Clear
8:10 AM 46.4 °F 41.9 °F 37.4 °F 71% 30.15 in 10.0 mi SSE 9.2 mph - 0.00 in   Clear
8:30 AM 48.2 °F - 37.4 °F 66% 30.16 in 10.0 mi South 8.1 mph - 0.00 in   Clear
8:50 AM 50.0 °F - 37.4 °F 62% 30.16 in 10.0 mi SSE 9.2 mph - 0.00 in   Clear
9:10 AM 51.8 °F - 39.2 °F 62% 30.15 in 10.0 mi South 9.2 mph - 0.00 in   Clear
9:50 AM 55.4 °F - 39.2 °F 54% 30.15 in 10.0 mi South 13.8 mph - 0.00 in   Clear
10:10 AM 57.2 °F - 39.2 °F 51% 30.15 in 10.0 mi SSW 13.8 mph - 0.00 in   Clear
10:30 AM 57.2 °F - 39.2 °F 51% 30.15 in 10.0 mi SSW 13.8 mph - 0.00 in   Scattered Clouds
10:50 AM 57.2 °F - 39.2 °F 51% 30.15 in 10.0 mi SSW 12.7 mph - 0.00 in   Overcast
11:10 AM 57.2 °F - 39.2 °F 51% 30.15 in 10.0 mi SSW 11.5 mph - 0.00 in   Overcast
11:30 AM 57.2 °F - 41.0 °F 55% 30.14 in 10.0 mi SSW 10.4 mph - 0.00 in   Overcast
11:50 AM 60.8 °F - 42.8 °F 52% 30.13 in 10.0 mi SSW 11.5 mph - 0.00 in   Scattered Clouds
12:10 PM 62.6 °F - 42.8 °F 48% 30.12 in 10.0 mi South 12.7 mph - 0.00 in   Clear
12:30 PM 62.6 °F - 42.8 °F 48% 30.11 in 10.0 mi SSW 15.0 mph - 0.00 in   Clear
12:50 PM 64.4 °F - 42.8 °F 45% 30.10 in 10.0 mi South 12.7 mph 18.4 mph 0.00 in   Clear
1:10 PM 64.4 °F - 44.6 °F 49% 30.10 in 10.0 mi South 15.0 mph - 0.00 in   Clear
1:30 PM 64.4 °F - 44.6 °F 49% 30.10 in 10.0 mi South 16.1 mph 20.7 mph 0.00 in   Clear
1:50 PM 66.2 °F - 44.6 °F 46% 30.09 in 10.0 mi South 15.0 mph 18.4 mph 0.00 in   Clear
2:10 PM 66.2 °F - 44.6 °F 46% 30.08 in 10.0 mi South 15.0 mph - 0.00 in   Clear
2:30 PM 66.2 °F - 44.6 °F 46% 30.07 in 10.0 mi South 15.0 mph - 0.00 in   Clear
2:50 PM 66.2 °F - 44.6 °F 46% 30.07 in 10.0 mi South 13.8 mph 20.7 mph 0.00 in   Clear
3:10 PM 66.2 °F - 44.6 °F 46% 30.07 in 10.0 mi South 11.5 mph - 0.00 in   Clear
3:30 PM 66.2 °F - 46.4 °F 49% 30.07 in 10.0 mi SSW 17.3 mph 21.9 mph 0.00 in   Clear
3:50 PM 66.2 °F - 46.4 °F 49% 30.08 in 10.0 mi South 16.1 mph 21.9 mph 0.00 in   Clear
4:10 PM 66.2 °F - 46.4 °F 49% 30.08 in 10.0 mi South 13.8 mph 18.4 mph 0.00 in   Clear
4:30 PM 64.4 °F - 44.6 °F 49% 30.09 in 10.0 mi South 11.5 mph - 0.00 in   Clear
4:50 PM 64.4 °F - 44.6 °F 49% 30.09 in 10.0 mi South 10.4 mph - 0.00 in   Clear
5:10 PM 62.6 °F - 44.6 °F 52% 30.10 in 10.0 mi South 9.2 mph - 0.00 in   Clear
5:50 PM 60.8 °F - 42.8 °F 52% 30.10 in 10.0 mi South 10.4 mph - 0.00 in   Clear
6:10 PM 60.8 °F - 42.8 °F 52% 30.10 in 10.0 mi South 12.7 mph - 0.00 in   Clear
6:30 PM 59.0 °F - 42.8 °F 55% 30.11 in 10.0 mi South 10.4 mph - 0.00 in   Clear
6:50 PM 59.0 °F - 42.8 °F 55% 30.11 in 10.0 mi South 11.5 mph - 0.00 in   Clear
7:10 PM 59.0 °F - 42.8 °F 55% 30.12 in 10.0 mi South 11.5 mph - 0.00 in   Clear
7:30 PM 57.2 °F - 42.8 °F 59% 30.12 in 10.0 mi South 11.5 mph - 0.00 in   Clear
7:50 PM 57.2 °F - 42.8 °F 59% 30.13 in 10.0 mi South 9.2 mph - 0.00 in   Clear
8:10 PM 57.2 °F - 42.8 °F 59% 30.13 in 10.0 mi SSE 10.4 mph - 0.00 in   Clear
8:30 PM 57.2 °F - 42.8 °F 59% 30.13 in 10.0 mi SSE 10.4 mph - 0.00 in   Clear
8:50 PM 55.4 °F - 42.8 °F 63% 30.12 in 10.0 mi SSE 11.5 mph - 0.00 in   Clear
9:10 PM 55.4 °F - 42.8 °F 63% 30.12 in 10.0 mi SSE 12.7 mph - 0.00 in   Clear
9:30 PM 55.4 °F - 42.8 °F 63% 30.13 in 10.0 mi South 13.8 mph - 0.00 in   Clear
9:50 PM 55.4 °F - 41.0 °F 58% 30.13 in 10.0 mi SSE 13.8 mph - 0.00 in   Clear
10:30 PM 55.4 °F - 41.0 °F 58% 30.13 in 10.0 mi SSE 12.7 mph - 0.00 in   Clear
10:50 PM 55.4 °F - 41.0 °F 58% 30.13 in 10.0 mi South 12.7 mph - 0.00 in   Clear
11:10 PM 55.4 °F - 41.0 °F 58% 30.13 in 10.0 mi South 11.5 mph - 0.00 in   Clear
11:30 PM 53.6 °F - 41.0 °F 62% 30.13 in 10.0 mi South 12.7 mph - 0.00 in   Clear
11:50 PM 55.4 °F - 39.2 °F 54% 30.13 in 10.0 mi South 11.5 mph - 0.00 in   Clear